Wind_Speed
10 10 11 11 11 10 10 11 11 11 11 11 12 10 10 9 9 9 9 10 10 10 10 9 8 6 6 4 4 4 2 2 3 6 8 5 6 8 11 13 13 15 14 13 12 12 12 11 11 10 9 7 3 5 4 2 1 4 3 3 2 0 1 3 3 3 3 1 3 3 4 5 3 3 2 4 4 3 5 6 6 8 9 9 8 9 10 9
10 9 10 11 11 11 10 11 11 11 11 11 11 10 10 9 9 9 9 10 10 10 9 8 7 6 5 4 3 3 2 4 5 8 10 7 11 12 15 15 15 16 14 12 12 12 12 11 12 11 7 5 2 4 5 1 2 4 2 4 1 3 4 5 5 4 3 1 2 2 2 4 1 1 2 4 4 5 4 6 7 7 7 7 6 8 9 9
11 9 9 10 11 11 11 11 11 10 11 11 10 10 10 9 8 8 9 10 10 9 9 8 7 6 5 4 3 2 1 6 5 5 9 13 15 16 17 16 15 14 10 9 8 7 10 12 12 9 5 4 2 3 4 1 1 2 3 4 3 4 3 5 5 4 3 2 1 2 1 1 1 1 2 4 5 5 3 3 4 5 5 4 5 8 9 8
10 10 10 11 11 11 10 10 10 10 11 11 10 10 9 9 9 9 10 10 10 9 9 8 7 6 5 4 3 3 4 6 5 7 12 17 17 18 17 15 15 12 7 7 6 5 9 11 9 6 4 4 3 2 2 1 1 1 3 3 4 1 1 4 4 4 3 1 0 3 2 2 1 2 1 2 4 3 3 5 5 5 6 5 5 7 9 9
10 10 11 12 11 11 10 10 10 11 11 11 10 10 9 9 8 8 9 10 10 9 9 8 7 6 5 4 3 3 6 5 7 9 15 19 17 17 16 15 14 10 7 8 6 5 7 9 8 5 3 2 3 3 1 2 1 1 2 4 4 1 1 4 4 3 3 1 1 3 2 1 1 3 3 3 1 1 1 7 5 4 6 6 7 8 9 9
9 10 10 11 11 10 10 10 10 11 11 11 10 10 9 9 8 9 10 10 9 9 8 7 6 5 5 5 5 4 5 4 8 11 17 19 17 16 16 15 13 9 8 8 6 5 5 7 8 4 2 1 2 1 2 2 2 1 3 5 4 3 3 4 4 4 2 1 2 2 2 1 2 2 3 3 4 1 3 8 7 5 7 7 7 7 8 9
9 9 10 10 11 10 10 11 11 11 11 11 10 10 9 9 9 8 9 10 9 9 8 7 7 6 6 6 4 6 5 6 9 13 17 18 17 16 15 14 12 10 9 7 5 4 2 6 5 1 1 2 2 2 4 4 0 1 4 5 4 5 5 4 5 4 3 3 4 3 4 4 5 3 4 5 5 4 7 8 8 7 8 8 7 7 8 8
10 10 10 11 11 11 11 11 11 11 11 10 10 9 8 8 8 8 9 9 9 9 8 7 7 8 8 8 5 6 5 8 11 16 18 19 17 16 16 14 12 10 9 6 3 1 1 4 2 2 1 3 2 4 4 3 3 3 5 6 5 6 6 5 5 5 5 5 4 3 3 1 1 3 4 4 6 6 8 8 8 8 8 8 7 8 8 8
11 11 11 11 11 11 11 11 10 10 10 10 9 8 7 7 8 9 9 9 10 8 8 8 7 9 10 8 9 6 7 6 11 16 18 20 18 17 15 12 12 10 7 4 2 3 3 2 3 2 3 5 2 3 1 2 3 5 6 6 6 6 6 5 6 5 4 4 1 3 4 3 4 5 4 6 7 7 9 9 8 7 8 8 7 8 9 9
10 11 11 11 11 11 11 10 10 10 9 9 9 8 7 8 8 9 9 9 9 8 9 8 8 10 11 9 8 7 6 4 12 14 18 21 18 18 13 10 11 9 5 3 3 3 2 2 5 3 5 5 2 3 2 1 5 7 7 7 7 7 6 5 6 4 4 5 1 3 6 4 2 1 3 7 8 9 10 9 7 6 7 8 8 8 9 10
10 10 10 10 11 10 10 10 10 9 9 9 8 7 7 8 8 8 9 9 9 9 9 9 10 11 11 10 4 9 4 3 11 14 18 20 17 16 11 8 9 7 4 3 3 2 1 5 6 2 3 4 5 6 6 6 9 9 8 9 8 7 7 5 5 3 2 4 2 4 6 5 3 1 5 9 7 9 11 10 6 6 8 8 9 8 8 9
10 10 10 10 10 10 10 9 9 9 8 8 7 7 7 8 8 8 8 9 9 9 9 9 11 9 10 8 2 8 3 4 11 15 17 17 14 11 8 8 8 4 5 4 3 4 4 6 4 1 3 4 5 6 7 7 8 8 6 6 7 6 6 4 3 2 2 4 3 4 4 4 6 5 7 9 7 9 12 11 9 7 8 8 8 7 7 9
10 10 10 10 9 10 9 9 9 8 8 7 6 7 7 7 7 7 8 8 8 8 9 10 10 8 9 1 6 3 2 7 14 15 16 15 11 8 7 7 5 3 5 1 7 7 6 6 3 6 5 4 4 5 8 7 6 6 3 3 6 5 5 4 3 2 3 5 2 2 2 4 8 7 6 8 8 10 10 11 11 8 7 8 8 7 7 8
10 10 9 9 9 9 8 8 8 7 7 6 6 7 7 7 7 7 8 7 6 7 8 9 8 9 6 5 6 3 7 11 15 15 16 14 10 8 7 6 4 1 2 8 12 9 9 8 7 8 4 4 7 8 9 7 5 4 3 3 3 2 5 5 2 1 2 4 2 1 2 4 7 7 6 6 7 9 9 10 10 9 8 7 7 8 7 7
10 10 9 9 8 8 8 7 7 6 6 6 6 6 6 7 6 6 7 6 7 7 6 5 7 8 4 7 4 7 13 13 14 15 16 15 12 10 9 8 6 6 8 11 11 10 9 7 6 6 5 7 10 9 6 4 4 4 3 3 2 1 5 5 2 1 2 3 2 1 3 6 7 8 6 5 6 7 9 9 9 9 8 7 7 8 7 7
10 10 9 9 8 8 7 6 6 5 5 4 4 3 4 5 6 7 7 6 6 6 5 4 8 9 4 8 5 9 10 8 11 14 14 12 8 10 13 11 9 10 11 10 10 9 7 5 4 5 6 7 7 4 2 2 4 4 2 1 3 2 4 5 4 2 2 1 1 1 1 6 7 8 7 5 6 7 8 8 8 8 7 7 7 7 7 7
10 9 9 8 7 7 6 5 5 4 3 3 3 3 3 4 6 7 6 6 4 4 5 4 5 6 2 6 6 8 8 7 11 13 12 8 6 13 16 12 10 11 12 10 9 7 5 3 3 4 4 3 3 1 0 2 2 3 0 2 3 2 3 4 4 3 1 2 1 1 2 7 8 9 8 6 6 7 8 8 8 7 7 7 7 7 7 7
10 10 9 8 7 6 5 4 3 3 3 5 7 7 6 7 8 6 4 4 2 1 4 3 4 4 4 6 5 8 9 9 10 12 11 8 9 14 12 9 11 12 11 8 7 5 3 3 3 3 2 2 2 2 2 5 5 4 2 2 4 3 2 3 4 3 1 1 1 2 4 7 8 9 8 7 6 7 9 8 8 8 7 7 7 7 7 7
10 9 8 8 7 6 4 2 2 4 7 10 11 11 9 7 4 3 5 5 3 2 4 4 3 3 9 8 6 9 9 10 11 11 11 10 12 10 7 10 12 10 7 5 6 5 3 3 4 2 0 1 1 3 5 6 6 5 4 3 4 4 3 4 5 3 1 1 2 3 4 6 7 8 8 8 7 7 9 8 7 7 7 7 6 6 7 7
10 9 8 8 7 5 3 1 4 8 11 11 8 6 4 3 4 5 6 5 2 3 7 7 2 7 13 9 8 9 9 11 10 10 13 13 12 10 8 10 9 7 5 2 3 4 2 3 2 2 4 4 2 2 3 3 4 5 4 4 4 3 5 4 4 5 1 2 3 3 4 7 7 7 8 8 8 8 9 9 8 8 7 7 6 7 8 8
11 10 9 8 7 5 2 1 6 11 13 9 4 4 1 1 3 5 5 5 4 5 6 6 3 5 8 5 5 7 6 8 8 9 13 13 12 10 8 7 6 5 3 0 1 3 3 4 2 5 6 4 1 1 1 2 4 4 4 4 3 3 5 5 3 4 1 2 3 3 3 7 7 7 8 8 8 9 10 10 9 10 8 6 7 8 8 7
13 12 11 10 7 4 1 2 7 11 11 6 4 6 3 5 4 4 1 6 8 4 3 4 2 3 5 1 2 2 4 7 9 11 11 12 11 7 5 6 6 2 3 3 2 3 4 2 4 5 3 2 3 4 4 3 3 3 3 2 3 4 5 5 4 3 2 2 4 5 3 5 6 6 7 7 7 8 9 9 9 10 9 7 7 8 8 8
13 13 13 11 6 1 1 4 6 8 8 4 6 6 3 4 4 6 6 4 8 4 3 3 1 4 5 3 3 4 6 5 8 11 13 12 9 6 5 6 5 2 2 4 3 3 2 3 5 4 3 3 4 6 6 4 3 3 3 2 4 4 2 3 5 4 2 1 3 5 4 4 5 5 6 7 7 6 7 8 8 8 9 8 8 8 8 9
13 13 13 12 5 3 3 4 5 6 7 8 10 7 3 4 6 8 6 3 7 4 4 3 2 3 4 3 3 6 4 2 2 9 14 13 7 4 6 5 5 4 3 3 4 6 4 5 4 2 2 2 4 7 7 3 3 4 4 3 4 4 1 3 5 6 4 3 4 5 4 4 7 8 7 8 8 7 8 9 9 8 8 8 8 8 8 9
12 12 12 10 4 5 4 3 3 4 6 8 9 7 5 6 8 7 4 3 6 4 3 2 1 3 3 2 3 3 1 2 1 5 12 12 6 4 3 3 4 4 0 2 5 5 2 4 2 2 3 3 3 6 5 2 2 4 4 4 4 4 2 4 6 6 4 5 5 5 3 4 8 9 9 9 9 9 9 10 11 10 9 9 8 9 9 9
12 10 10 8 3 4 2 1 2 3 5 5 4 3 5 9 8 5 3 4 6 3 2 3 1 2 2 2 3 1 3 4 1 3 9 8 4 3 3 3 3 3 3 2 4 2 2 2 1 3 3 3 3 3 3 3 1 4 4 3 5 5 5 5 4 3 1 4 4 4 4 2 7 9 10 10 11 11 11 11 12 11 11 10 9 9 9 9
12 10 9 7 2 1 0 2 1 3 3 1 2 6 9 10 5 3 3 5 5 2 0 2 1 2 2 1 1 3 3 3 3 4 6 6 4 3 4 3 3 1 1 2 2 1 1 1 2 3 3 4 2 1 3 4 4 4 5 5 5 6 7 5 3 1 2 2 4 4 4 2 3 6 9 12 12 12 12 13 13 12 12 12 11 10 11 11
13 11 9 7 3 4 4 3 3 4 3 4 7 10 8 5 5 4 3 5 4 2 0 3 2 1 1 1 3 3 1 1 1 4 5 6 5 3 5 4 2 1 4 4 2 4 2 1 1 3 3 2 1 2 5 3 3 6 7 6 5 6 6 3 2 2 2 1 3 3 3 3 3 5 7 11 11 12 13 14 14 14 14 14 13 12 12 12
14 12 10 8 6 5 6 6 6 5 5 9 9 5 3 7 5 4 3 4 2 1 1 2 1 1 1 3 5 2 1 4 3 4 6 6 5 4 3 1 3 1 4 6 4 4 3 2 1 2 1 2 3 4 5 2 3 7 8 5 5 5 5 2 2 1 1 2 2 3 2 3 2 6 6 8 9 11 12 13 14 15 15 14 13 13 13 12
14 12 12 9 6 4 5 7 6 3 7 9 2 5 8 6 3 4 4 2 1 1 2 0 2 3 2 2 5 3 4 5 2 4 6 5 6 5 2 1 3 3 3 5 3 4 5 2 0 1 2 4 7 6 4 2 7 10 8 6 6 5 4 3 2 1 3 2 4 2 2 4 0 4 5 6 7 8 9 10 13 14 15 15 14 13 13 12
14 13 13 10 6 4 4 3 1 4 8 3 7 7 5 3 3 4 4 1 1 1 2 2 1 2 1 2 1 2 4 5 4 6 6 4 6 6 4 3 4 4 4 4 3 5 6 5 3 2 3 6 9 8 5 6 11 9 5 4 4 4 4 3 3 3 2 3 4 0 2 5 3 2 4 5 6 6 6 7 12 15 16 15 14 14 13 12
14 14 13 12 9 7 6 3 5 7 4 5 8 4 4 3 2 1 4 3 2 2 1 2 1 1 2 3 3 4 5 5 6 7 5 4 5 4 4 3 1 3 3 1 3 5 6 4 5 5 5 7 8 7 6 6 8 6 3 4 4 1 1 1 1 1 2 5 3 0 2 4 3 2 3 5 6 6 5 5 8 13 16 16 15 14 13 12
14 14 14 13 10 7 6 7 8 5 3 8 5 4 4 4 2 2 3 3 0 2 1 2 3 3 5 5 4 4 4 4 6 6 5 3 4 3 4 3 4 5 2 2 1 3 4 5 7 7 5 7 6 2 4 5 5 6 3 3 3 2 2 2 2 2 3 4 3 1 3 3 1 2 2 3 4 4 5 6 6 8 12 15 15 15 14 13
13 13 14 12 7 6 6 5 5 1 7 6 5 3 3 3 2 2 2 3 1 1 2 2 5 5 4 4 1 4 4 4 4 5 5 5 5 5 4 5 7 6 4 2 2 1 1 2 7 5 4 7 7 3 2 1 3 3 2 3 3 2 3 4 3 4 4 2 3 3 3 3 2 2 2 3 2 2 4 6 6 7 8 12 14 15 14 14
12 12 13 9 5 8 7 3 0 6 9 5 4 4 4 3 3 3 2 2 2 3 2 1 5 5 4 3 2 5 4 3 4 4 5 5 5 4 3 5 9 7 5 3 1 0 3 2 6 3 2 6 6 1 2 2 2 2 2 3 2 3 3 3 2 4 4 2 1 2 2 3 2 4 3 3 4 4 4 5 8 9 8 9 12 14 14 13
11 11 9 4 5 11 8 2 3 7 7 5 4 4 2 1 1 2 2 0 0 1 3 3 3 4 4 5 5 6 3 2 3 4 5 5 5 4 4 3 6 9 6 3 1 1 2 3 7 4 3 6 4 2 3 3 1 3 3 1 2 3 3 2 0 1 3 2 1 1 2 1 3 3 2 3 5 5 4 5 8 10 10 10 10 12 13 13
9 8 5 2 7 11 5 2 4 6 6 5 3 1 0 1 2 2 2 0 0 2 5 3 2 2 2 3 4 6 5 3 4 4 3 3 3 4 6 4 4 7 7 4 2 1 2 2 6 5 5 5 2 3 3 2 2 2 1 2 2 1 3 2 1 1 2 2 2 2 4 3 1 0 2 4 5 5 5 6 8 10 11 10 10 12 13 14
9 6 3 3 10 9 2 2 2 5 5 4 2 1 0 1 2 1 1 1 1 2 4 2 1 1 1 1 2 5 5 5 5 4 3 3 2 1 3 4 3 3 5 5 3 1 3 1 5 4 2 6 5 5 4 3 3 3 3 1 2 2 1 1 1 3 3 3 2 2 4 3 2 3 2 3 4 5 5 6 9 11 11 10 10 13 14 14
7 4 2 5 11 6 2 3 3 5 5 4 3 2 1 1 2 1 2 2 2 2 2 1 0 2 2 3 1 3 4 4 3 4 4 3 3 2 2 1 2 2 3 6 3 3 2 2 3 4 3 5 7 6 3 5 4 3 1 2 3 3 3 1 2 3 4 4 3 4 4 1 4 6 5 1 3 6 6 6 8 9 10 9 9 12 14 14
3 3 3 5 10 4 3 6 4 3 2 2 0 1 1 0 2 2 3 4 3 2 2 1 1 1 2 3 2 1 2 3 3 4 3 2 3 2 1 1 2 3 4 5 4 3 2 2 1 5 5 4 5 4 3 1 3 4 4 3 3 2 2 2 1 2 4 4 3 4 5 2 5 5 4 2 2 5 6 7 7 7 9 9 9 12 13 13
2 3 3 5 9 3 4 5 1 1 0 1 1 1 1 2 2 2 3 5 5 2 2 4 3 3 3 2 2 2 1 2 4 4 3 4 4 2 1 1 2 5 5 6 5 3 2 2 1 4 5 5 2 2 2 4 2 3 2 2 2 2 2 3 1 0 2 4 4 5 5 3 4 4 2 2 1 3 5 6 6 7 9 9 10 11 12 13
4 3 2 5 8 2 4 3 2 1 1 2 1 0 1 2 2 2 2 4 5 3 2 4 5 4 4 3 2 2 2 2 3 3 2 3 3 1 2 1 2 4 4 3 3 2 1 2 2 2 3 1 3 4 1 4 5 5 3 3 3 2 3 4 3 2 2 2 3 4 5 3 5 3 2 1 0 1 2 4 5 7 9 9 10 11 12 12
4 2 2 5 8 3 5 3 2 2 1 2 1 1 0 2 2 2 2 4 4 3 3 4 5 4 4 3 3 3 3 2 2 1 1 2 1 3 3 2 4 5 5 2 3 3 1 2 3 3 1 2 4 4 2 1 4 6 5 4 4 3 3 5 4 4 3 2 2 4 4 2 5 3 1 1 1 1 2 4 6 7 7 9 10 11 11 11
1 1 1 3 7 3 5 3 2 2 1 2 1 1 1 3 3 4 3 2 2 3 4 4 4 4 3 3 4 3 2 2 2 1 2 2 2 5 3 3 5 5 4 1 1 4 3 2 3 4 3 3 4 5 4 3 5 5 3 4 5 4 3 2 2 3 3 2 3 5 4 3 3 2 2 1 2 3 3 4 6 7 7 8 9 10 11 10
1 2 2 1 4 2 3 2 2 3 1 1 3 2 1 2 3 3 5 4 3 3 4 3 2 3 3 4 5 4 3 3 2 1 2 1 3 4 2 2 4 4 2 2 1 4 3 2 3 5 5 3 3 1 1 1 3 3 2 4 5 6 6 3 3 4 2 1 3 5 4 6 6 2 2 2 3 4 5 5 6 7 8 9 9 9 10 10
2 3 3 3 1 0 1 1 2 4 2 2 3 1 1 2 1 2 4 4 2 2 5 4 3 4 4 5 6 4 4 3 2 4 3 2 4 3 2 3 3 1 5 3 2 4 2 2 3 5 6 5 5 4 3 3 3 2 3 5 5 6 6 5 5 4 2 2 3 2 5 7 8 5 2 1 2 4 5 6 7 7 8 9 9 9 9 9
2 3 2 2 2 2 3 3 3 3 1 2 2 1 1 2 2 1 2 2 0 2 4 4 4 4 4 4 5 4 4 5 3 6 6 2 4 5 3 3 4 5 5 3 2 3 3 3 2 4 5 4 5 4 2 3 5 3 1 4 5 5 6 6 6 4 4 4 3 5 5 7 7 6 5 3 1 3 4 6 7 8 8 8 9 9 10 10
1 1 1 1 2 3 3 3 3 3 3 3 2 1 2 3 2 1 1 2 2 1 2 2 4 4 4 5 5 3 6 7 7 7 5 3 4 6 5 4 5 5 5 4 3 2 4 2 1 2 3 0 1 0 1 3 3 3 2 3 4 6 7 7 7 4 3 6 5 5 4 7 7 6 5 3 0 2 3 5 6 8 9 9 10 11 11 11
0 1 1 1 2 1 1 1 1 3 4 4 3 3 4 5 2 1 1 3 3 1 1 4 5 6 6 7 6 4 5 4 4 5 5 5 4 5 5 4 5 5 5 4 3 1 4 1 2 2 3 2 2 1 2 4 4 4 4 3 3 5 6 7 6 4 4 8 7 5 7 8 6 5 4 3 1 1 4 5 6 8 9 10 10 11 12 12
1 1 1 1 3 1 2 2 2 4 4 4 4 3 4 5 2 2 2 4 4 2 2 5 8 10 10 9 8 5 3 1 1 2 4 5 4 4 3 2 3 5 5 3 3 1 2 1 2 3 5 4 4 2 3 5 5 6 5 4 4 5 5 6 5 3 5 7 6 5 8 7 0 2 2 2 2 3 4 6 6 8 9 10 10 11 11 12
4 2 2 3 3 3 2 3 2 4 4 4 5 4 4 3 1 4 3 4 6 6 6 8 9 9 8 9 9 3 2 1 0 1 2 4 2 2 2 2 3 5 5 3 2 2 2 1 3 5 5 3 5 3 4 4 6 8 6 4 5 5 4 4 4 4 5 5 4 5 6 3 3 4 2 2 4 5 6 6 7 7 8 10 10 10 11 11
6 2 2 4 2 2 3 3 3 4 3 2 3 5 4 2 5 6 3 5 7 6 5 8 10 7 6 8 4 2 5 3 2 2 1 2 0 2 1 1 2 2 3 4 2 1 2 2 3 4 4 3 4 2 3 4 6 5 2 0 2 3 3 3 4 5 6 5 4 4 4 4 4 2 2 3 5 6 6 6 6 7 8 9 9 9 10 10
Wind_Direction
290 281 274 268 270 268 264 268 269 269 269 266 264 261 259 255 250 255 257 258 260 254 253 254 252 251 253 248 248 248 236 273 253 221 227 220 173 152 152 156 151 149 146 142 149 146 146 148 143 163 164 157 164 130 154 120 194 244 238 255 253 224 31 26 341 340 328 115 134 150 194 234 201 162 186 187 184 139 108 94 91 84 82 85 96 113 119 122
291 283 274 267 272 276 272 269 268 268 269 268 267 263 257 254 255 258 259 259 259 256 253 253 249 248 248 244 242 234 250 254 243 239 228 174 144 153 157 161 157 153 154 153 154 149 148 143 149 171 164 158 160 143 177 151 259 269 290 260 322 31 36 21 348 341 320 336 103 127 206 252 278 107 196 210 167 145 134 115 115 98 83 90 111 119 115 111
294 288 275 271 277 280 276 272 270 272 271 268 267 265 258 256 257 257 260 259 258 254 250 250 243 243 244 226 214 190 221 235 221 217 190 155 147 157 163 164 158 156 161 161 154 144 143 144 157 171 157 159 137 162 189 147 260 299 300 274 32 45 46 37 2 348 342 331 182 132 128 200 77 160 207 243 209 169 138 92 111 118 106 113 131 119 109 105
292 287 277 277 282 280 277 273 270 273 273 270 267 265 263 259 255 256 260 259 256 251 249 247 239 242 230 198 192 179 229 222 156 131 152 154 155 160 165 164 160 161 166 162 147 121 139 151 162 172 165 154 130 179 177 89 264 337 308 314 40 30 42 44 10 1 9 315 235 106 134 149 152 238 244 261 222 169 85 59 73 123 134 135 135 119 114 112
292 288 284 285 283 280 281 277 273 273 272 271 269 267 268 264 258 257 257 257 254 251 250 244 238 237 204 177 165 195 234 193 130 133 154 160 160 161 164 164 163 164 172 166 148 134 147 160 170 184 195 146 136 175 107 72 261 88 48 23 39 320 25 49 27 25 26 358 133 125 154 88 338 293 7 35 116 259 41 91 106 134 132 130 129 123 119 117
295 289 287 288 287 287 285 278 273 272 271 270 270 268 269 264 257 253 253 253 252 253 248 240 233 222 197 173 154 218 244 133 135 154 160 166 164 164 165 165 166 164 174 166 156 164 160 175 182 182 181 123 107 127 91 110 250 247 83 59 45 35 57 63 50 46 32 56 98 97 108 109 218 177 105 119 132 175 59 100 136 135 111 115 117 118 116 114
302 292 289 289 287 285 279 275 271 271 270 270 269 268 267 259 253 254 256 256 256 252 241 236 222 207 198 173 164 231 223 107 132 159 163 168 165 167 167 168 169 166 179 175 174 181 169 202 201 186 141 91 62 103 109 121 237 295 107 93 69 63 70 66 64 66 54 60 67 103 147 199 211 164 137 145 122 110 84 98 133 122 113 119 117 114 108 107
307 298 294 288 284 280 277 276 273 273 272 271 269 268 268 262 261 259 259 257 253 244 236 231 211 200 185 181 202 196 148 94 134 158 166 167 164 168 165 168 174 177 193 192 193 218 227 203 187 312 46 74 82 119 122 132 81 75 116 120 99 80 74 68 73 77 73 79 90 136 156 205 137 95 103 100 76 96 106 107 119 115 119 121 120 118 110 108
308 302 296 288 286 283 281 280 277 277 275 274 273 271 271 263 262 258 254 251 245 240 232 218 206 202 183 209 239 165 100 78 144 159 168 168 166 167 165 171 179 189 206 211 246 272 267 188 119 355 47 75 97 112 117 257 75 90 117 124 113 94 81 75 75 75 80 91 133 136 101 62 70 84 100 93 84 106 116 111 110 114 120 120 123 121 114 110
308 302 298 294 291 287 284 281 278 277 274 274 272 268 263 255 255 252 250 247 239 230 226 214 202 202 192 230 243 143 89 95 146 159 170 172 169 168 173 178 181 197 212 212 240 265 280 133 110 83 80 84 74 73 31 25 100 111 116 110 102 94 87 83 84 94 94 90 145 123 102 108 100 81 106 104 111 121 119 111 109 125 128 124 119 113 110 110
310 303 301 297 293 290 285 282 280 277 274 272 268 263 255 252 251 249 251 247 238 229 226 211 194 199 213 240 216 125 105 122 147 160 173 177 171 170 178 175 184 206 226 232 224 225 187 127 125 122 97 99 91 84 79 97 117 123 122 108 99 98 95 95 94 112 130 98 80 87 107 127 121 96 96 108 129 125 119 116 116 122 122 117 110 112 114 115
312 307 303 296 293 290 285 283 280 276 274 272 269 263 253 252 247 244 250 245 236 225 218 208 193 203 235 246 103 109 126 151 156 161 170 177 171 172 177 175 191 223 276 270 161 159 153 139 153 70 88 133 121 101 105 120 127 127 138 119 114 119 99 90 92 97 140 112 62 61 105 106 90 90 98 113 133 126 124 126 124 119 117 118 117 122 122 122
316 310 306 301 298 292 287 286 281 277 276 274 269 259 252 247 238 240 246 238 231 218 206 199 189 219 244 204 76 103 154 152 160 158 163 169 167 171 171 170 192 250 289 233 130 137 139 131 102 77 101 142 108 104 123 139 149 140 166 146 142 147 107 85 93 119 130 122 107 57 91 82 86 102 108 116 129 129 129 125 125 128 127 129 127 125 119 125
320 315 310 307 301 294 293 289 284 281 274 266 256 253 248 237 230 235 231 215 213 204 195 191 194 235 240 94 75 136 135 143 156 155 158 162 158 156 161 164 166 162 130 124 124 125 121 119 108 100 97 90 107 132 137 150 177 150 157 173 188 176 108 98 92 161 141 138 177 31 93 102 94 105 111 121 133 132 128 123 125 128 128 132 129 123 120 126
325 321 316 310 304 299 298 293 290 283 273 266 254 245 235 228 220 214 205 192 196 184 177 196 214 232 170 104 78 116 126 142 155 158 160 159 155 150 158 157 137 124 123 120 120 119 123 128 124 113 92 107 142 158 140 152 165 142 161 167 181 109 109 118 105 24 61 129 172 348 105 109 99 104 108 126 139 133 128 126 127 123 125 129 126 123 121 124
329 325 321 317 314 311 307 303 294 283 274 262 239 217 207 210 199 186 174 176 184 166 174 217 223 229 144 107 119 129 138 151 155 163 165 166 163 147 148 146 134 131 127 122 121 121 126 120 105 116 121 138 167 162 122 186 156 152 214 97 88 103 127 138 134 86 7 36 113 304 81 100 108 113 111 128 141 139 132 127 128 124 128 132 128 128 127 130
336 333 329 325 324 320 315 304 288 271 255 210 157 134 165 169 158 155 151 169 168 156 208 251 242 240 92 109 151 146 143 144 152 163 168 184 173 144 145 144 139 135 130 131 136 135 133 129 132 141 156 187 214 202 195 339 66 120 166 78 87 93 128 138 135 134 299 333 50 308 73 99 117 122 121 131 144 150 142 135 138 134 141 145 138 138 139 142
342 338 334 333 332 328 320 304 267 230 188 155 135 120 121 118 124 137 144 159 132 174 228 262 266 235 124 148 159 125 128 139 154 163 166 177 165 154 152 145 142 140 141 146 161 173 160 175 205 206 194 191 235 265 7 18 24 54 49 93 114 112 97 98 113 119 296 300 105 118 99 104 119 125 126 135 157 165 148 145 149 145 151 151 146 145 145 145
343 341 339 338 335 333 331 299 202 166 145 134 125 116 108 102 119 191 205 193 188 177 151 156 218 148 123 142 125 108 125 137 146 157 159 162 166 171 164 149 151 154 163 165 174 191 198 200 221 242 142 97 308 331 12 19 26 49 55 72 105 117 95 86 101 93 337 272 91 83 103 120 134 136 135 139 162 170 151 153 156 153 160 157 152 148 147 146
345 346 345 342 336 337 345 220 163 150 144 133 128 131 128 145 158 168 189 203 232 41 93 118 119 97 114 127 117 117 132 144 154 160 163 165 165 165 157 155 167 186 201 207 153 165 234 247 245 3 28 24 1 15 13 16 59 80 87 91 98 110 100 97 112 109 292 283 87 76 112 132 144 145 146 149 162 172 164 167 168 163 168 161 158 157 151 144
350 350 349 349 335 326 350 172 164 158 153 142 177 221 285 43 114 107 132 134 63 18 61 75 15 69 102 113 127 136 148 163 170 159 163 174 174 169 160 172 202 206 190 235 126 150 228 264 359 35 27 18 22 106 138 119 101 96 91 103 107 92 97 102 112 116 254 282 113 134 145 135 143 146 152 162 170 178 176 177 175 169 170 165 165 162 149 137
354 352 353 351 333 315 24 166 170 170 167 158 229 251 357 22 30 20 334 114 83 22 46 72 351 71 90 119 151 199 218 174 158 153 165 182 193 196 170 190 231 236 142 197 217 182 212 265 33 50 51 74 125 157 169 150 120 99 91 110 96 92 112 121 134 146 222 266 129 160 180 138 142 150 160 177 184 184 183 183 180 174 175 173 170 164 152 146
358 355 356 356 344 308 137 165 175 183 190 210 264 271 359 10 347 328 296 134 96 55 60 75 69 110 121 151 146 213 220 177 159 160 170 187 201 214 199 211 250 269 196 221 249 277 271 50 56 82 118 134 144 163 176 157 126 73 68 67 83 118 168 118 140 170 194 246 137 169 183 145 154 168 174 190 195 189 188 191 191 187 186 178 175 170 162 158
1 360 2 4 18 108 118 143 173 200 219 248 268 273 295 322 323 319 303 141 110 80 65 53 34 93 97 94 145 214 213 165 181 156 168 191 190 183 215 238 261 249 239 253 273 289 322 67 82 124 155 181 157 166 189 177 104 67 50 36 74 127 267 42 126 162 169 165 171 185 188 162 174 185 182 187 196 195 194 198 199 198 196 188 181 176 171 167
2 4 6 8 48 108 108 134 169 221 247 255 266 266 259 292 315 310 288 152 123 98 115 135 68 73 71 101 163 237 244 158 245 145 168 199 197 171 218 234 254 264 298 315 288 293 355 71 101 218 191 193 173 173 208 256 92 97 70 51 82 119 113 102 142 176 181 151 160 205 221 150 167 188 184 175 188 197 195 200 204 199 196 196 191 184 178 171
359 4 8 6 38 110 97 97 142 236 249 241 259 269 266 291 300 283 250 162 128 81 130 165 127 96 109 150 149 220 222 171 73 124 175 206 226 245 258 175 216 299 23 338 295 310 61 73 237 247 201 178 197 185 200 265 290 108 100 107 117 121 126 138 171 220 279 94 129 223 279 108 158 187 182 174 187 196 194 201 205 200 197 198 195 189 184 177
353 358 2 359 344 176 135 357 357 254 255 231 296 293 290 289 267 222 234 155 121 33 33 136 91 113 127 109 207 218 195 121 91 147 184 212 208 235 257 202 194 219 102 269 276 89 104 149 194 219 193 176 202 154 170 250 308 88 127 158 142 137 142 157 212 287 34 88 146 205 271 293 157 168 174 179 190 195 196 203 204 202 201 198 196 191 186 184
346 350 351 350 317 252 254 289 290 268 303 344 312 298 291 251 183 199 225 138 100 341 214 103 75 93 138 175 232 243 99 46 218 148 159 209 206 222 242 249 295 156 167 251 306 91 121 268 181 184 190 168 67 62 144 206 4 100 150 168 146 148 148 169 260 32 52 212 156 151 236 261 142 135 166 184 196 203 202 204 203 201 200 196 195 192 187 185
339 341 339 337 324 279 250 256 267 266 315 321 305 293 168 163 176 234 214 119 64 283 137 83 129 200 271 195 196 216 206 235 245 118 143 192 210 254 270 296 306 235 186 252 295 79 85 337 320 208 225 100 87 89 143 181 69 125 160 157 142 158 158 195 269 30 182 236 69 93 235 274 128 132 165 185 204 214 207 205 203 199 198 195 194 191 187 184
333 334 331 328 331 310 266 259 262 286 323 313 280 141 150 166 210 216 174 117 10 112 116 140 215 227 277 223 186 177 202 210 173 138 161 174 188 216 285 24 261 252 198 228 261 74 90 84 58 315 35 93 111 106 118 107 111 139 162 156 154 169 179 225 254 236 226 154 80 76 260 275 200 122 153 179 201 214 206 201 199 197 196 193 191 190 188 184
328 328 324 318 314 293 270 264 324 343 324 293 147 152 186 203 243 197 148 145 281 78 139 164 178 219 299 349 194 185 212 192 171 191 184 168 186 197 206 199 215 235 207 189 167 123 131 144 131 100 103 126 125 113 106 120 137 158 179 175 183 182 188 217 204 217 259 79 82 79 241 252 258 95 131 163 175 195 206 196 191 195 196 190 189 190 187 185
324 323 319 315 308 283 270 296 332 329 316 157 153 206 231 189 213 160 117 182 217 80 157 183 67 322 337 327 240 217 232 185 176 217 218 191 201 202 214 221 234 237 221 140 153 159 149 128 118 124 149 167 144 119 121 141 166 198 215 209 233 225 159 220 163 168 32 63 59 342 208 237 255 81 126 169 181 191 203 205 192 194 194 189 187 187 185 184
323 319 317 319 316 301 294 296 303 312 152 161 189 247 236 198 172 80 119 176 198 45 236 267 323 314 301 281 215 191 235 199 169 205 219 224 234 210 201 237 276 275 289 359 272 183 141 124 150 159 164 192 202 164 143 162 196 218 228 245 283 353 14 10 44 48 55 79 69 100 201 239 220 115 116 158 182 189 198 217 212 198 195 188 184 185 183 183
320 317 320 323 323 333 334 312 298 209 156 183 228 213 211 207 135 91 151 141 101 251 236 299 311 285 265 269 201 140 214 216 175 200 205 211 234 223 202 210 227 250 262 263 299 312 336 112 163 173 139 180 215 296 5 120 179 200 272 290 302 339 351 2 21 22 24 69 101 140 218 314 4 168 136 115 144 193 219 224 216 205 196 186 183 183 182 182
319 319 324 328 337 349 351 349 322 165 169 206 241 199 197 187 149 164 165 120 168 218 219 271 291 271 216 217 192 156 207 213 172 212 224 217 242 240 222 204 203 224 249 239 154 208 299 60 130 134 82 179 201 273 305 275 147 148 255 260 300 352 350 353 5 2 347 325 112 157 244 355 67 158 160 174 210 222 231 222 205 195 186 181 183 183 181 181
320 324 327 337 344 343 349 31 131 162 185 232 223 194 183 104 113 154 132 5 237 315 287 239 245 259 199 173 172 164 197 234 183 216 224 228 259 248 241 233 195 210 229 239 203 216 293 73 123 149 171 188 208 169 209 290 41 151 214 216 48 353 315 311 257 228 281 283 49 9 302 77 124 148 159 211 220 208 200 199 191 183 172 173 180 182 180 180
323 323 319 358 347 338 347 86 132 169 209 238 208 181 53 71 52 110 121 299 357 333 284 235 154 266 220 168 171 160 167 192 205 228 217 207 240 232 233 236 194 212 229 247 259 231 291 89 129 174 180 158 198 189 167 309 314 192 176 83 117 262 287 292 284 244 278 326 44 21 339 353 67 111 151 181 194 187 182 177 172 170 167 169 176 180 181 180
326 312 281 358 353 342 359 91 151 188 216 229 182 115 298 123 87 91 120 216 252 273 263 236 114 261 245 225 181 145 168 189 188 219 234 202 190 210 232 210 173 214 236 244 236 176 265 247 134 180 182 135 174 209 169 169 254 296 9 92 216 275 279 187 301 325 340 350 17 13 338 342 26 27 64 154 177 180 175 170 169 169 170 172 175 179 181 179
315 281 208 12 356 348 350 323 249 205 212 213 176 143 171 144 137 181 247 240 256 265 248 265 277 192 205 248 250 134 189 217 189 213 235 208 186 220 267 223 157 165 207 231 226 156 236 286 137 158 158 145 178 218 208 159 181 250 250 194 231 313 343 353 331 324 326 335 344 345 340 42 52 16 2 33 161 178 177 177 181 175 172 175 175 176 179 178
307 252 171 10 346 329 305 296 256 201 192 198 158 100 128 237 167 199 243 253 266 274 264 276 244 209 221 247 263 188 202 258 253 231 223 198 198 205 221 239 182 151 171 213 222 173 199 280 135 137 151 186 191 209 255 198 164 201 212 204 204 217 291 296 283 305 320 328 342 342 332 21 56 25 354 11 133 183 184 181 187 179 171 173 174 175 176 175
264 234 161 2 342 316 259 270 240 63 173 147 65 103 103 335 300 204 211 240 258 263 288 286 265 271 278 252 242 217 188 255 253 244 214 199 215 206 140 266 206 155 168 199 204 192 207 256 204 143 173 215 178 120 319 311 290 253 238 245 242 227 268 281 256 224 307 322 340 334 319 350 59 58 7 9 144 194 189 181 184 179 171 171 171 171 172 172
240 222 147 358 349 327 250 254 102 342 274 107 60 110 38 320 272 220 192 220 245 237 241 265 258 262 264 244 240 245 235 228 232 245 232 212 229 130 102 212 214 181 194 198 145 116 323 277 239 199 194 192 78 88 356 311 287 272 263 271 279 259 272 293 320 343 305 311 327 303 303 11 76 81 33 34 161 218 182 176 182 176 168 168 167 166 169 172
228 216 138 354 351 327 254 244 154 243 257 85 21 241 218 267 255 253 213 200 228 231 219 239 240 241 246 242 250 259 252 247 249 284 299 231 205 63 83 177 206 210 217 202 126 139 244 259 245 256 212 128 110 134 163 257 252 251 239 236 255 255 270 295 323 331 303 292 314 299 306 34 100 111 66 93 196 204 166 174 181 171 163 166 166 164 168 170
252 276 151 353 350 315 248 247 221 236 124 121 259 247 201 255 264 277 265 222 228 240 238 245 238 229 233 242 256 276 299 283 276 301 303 264 105 66 56 192 204 208 204 320 113 170 201 233 235 265 245 194 185 177 175 186 215 244 246 217 236 242 240 261 289 282 275 317 338 310 317 18 76 123 164 173 194 181 155 166 173 166 164 168 166 165 168 168
229 235 187 358 358 326 247 293 291 263 214 229 277 318 261 231 231 281 297 276 258 262 259 268 279 251 236 233 244 261 269 269 281 290 283 241 121 85 70 166 218 222 144 38 321 181 203 242 229 269 278 262 265 247 176 217 207 222 224 208 223 223 212 220 256 255 250 358 302 289 327 357 2 11 165 170 203 187 147 152 166 164 167 170 167 166 168 170
222 215 201 185 109 283 219 39 292 262 255 257 265 272 268 269 237 289 295 269 247 295 279 282 293 265 244 239 242 234 213 217 286 296 276 189 129 88 76 150 188 142 97 84 220 189 209 259 239 272 285 297 322 357 23 313 277 229 186 187 205 216 215 233 265 281 327 311 278 352 19 345 344 357 17 82 202 198 161 161 166 158 162 168 168 167 168 173
239 223 213 188 191 220 206 183 223 250 258 262 263 192 222 289 309 283 265 247 10 324 288 279 269 258 247 241 241 218 175 165 217 270 273 228 124 101 104 136 127 119 120 131 184 196 242 251 221 259 277 308 337 1 32 277 280 290 209 175 179 193 208 231 259 306 341 295 294 45 28 332 344 357 350 13 182 201 175 174 167 154 160 166 165 168 171 174
265 240 24 344 244 215 206 200 212 226 217 224 247 230 225 255 302 317 278 290 315 330 311 284 258 262 269 262 254 215 185 179 193 226 235 210 163 139 140 132 122 149 180 170 160 238 267 253 145 235 251 315 6 338 202 248 263 275 254 198 180 191 205 231 259 283 287 277 307 17 351 317 337 341 338 19 96 193 148 157 156 149 158 163 164 172 176 177
291 228 97 333 272 221 82 84 163 218 220 218 225 225 227 240 277 345 315 314 331 74 26 324 305 307 304 285 270 234 212 199 188 210 213 197 185 172 164 143 140 167 188 166 144 286 288 219 136 221 222 160 149 184 210 233 240 239 238 226 213 216 221 241 264 272 261 272 293 322 305 296 313 331 352 52 84 125 129 146 158 159 164 167 170 178 181 181
344 337 70 230 228 142 93 120 184 222 208 206 223 217 219 230 259 1 313 311 324 336 357 340 320 314 308 285 255 239 257 269 149 181 201 190 192 205 192 148 154 177 183 172 153 186 276 224 141 223 229 169 152 189 218 237 259 261 251 234 230 242 241 245 255 243 247 269 279 282 283 281 288 59 39 93 139 174 165 164 171 172 170 173 179 183 185 185
335 333 341 266 214 161 174 173 202 238 217 209 215 195 196 207 71 14 319 293 287 284 300 314 309 299 277 246 229 228 357 326 328 38 185 194 224 256 214 165 182 185 172 173 181 186 225 210 157 217 237 168 149 200 223 240 261 258 252 239 227 236 244 240 234 221 240 277 275 253 277 308 94 111 140 155 177 198 190 176 179 181 177 180 187 188 187 188
330 265 271 279 231 176 209 188 191 233 233 219 207 186 180 146 83 60 4 302 278 264 274 292 297 287 241 217 202 1 346 318 315 350 172 182 309 329 327 128 189 213 166 162 181 203 220 212 173 216 249 157 144 197 232 239 249 239 220 315 226 243 258 244 230 225 234 260 277 278 316 17 69 131 185 174 192 207 202 191 187 187 185 186 190 192 189 188
Height
791 791 791 790 790 790 790 790 791 791 791 791 790 790 790 789 789 789 789 789 789 788 788 788 787 787 786 786 786 786 786 787 788 788 787 783 782 784 784 786 787 787 788 789 790 789 789 788 789 789 786 786 785 787 789 787 788 789 792 795 793 793 798 800 800 801 801 802 805 807 807 808 810 811 810 810 811 812 814 816 816 817 819 823 825 825 826 826
790 790 790 789 789 789 789 790 790 790 790 790 790 790 789 789 788 787 788 787 787 787 787 786 786 786 786 785 786 785 786 787 788 786 783 782 783 784 784 786 787 787 788 789 788 787 787 787 787 786 784 787 787 787 790 790 790 792 794 795 795 798 803 804 803 803 803 805 807 808 809 809 811 812 811 813 815 814 816 817 818 824 826 827 827 826 826 826
789 789 789 789 789 789 789 789 789 789 789 789 789 788 788 787 787 786 786 786 786 786 785 786 785 785 785 785 785 785 786 787 785 782 780 781 783 783 785 786 787 788 788 789 788 785 785 786 785 784 784 788 788 789 791 792 792 795 796 798 800 803 805 805 805 805 805 806 808 810 810 812 814 812 814 819 817 813 817 820 822 829 830 830 828 825 827 826
789 788 788 788 788 788 788 788 788 788 788 788 788 787 787 786 785 785 785 785 785 784 785 785 785 785 785 785 785 786 786 785 782 779 780 781 782 783 785 786 787 788 788 789 788 786 785 785 784 783 785 789 790 789 792 794 795 798 800 804 805 804 807 808 807 806 806 807 808 811 813 816 816 813 816 822 821 818 820 825 827 828 829 831 829 826 827 827
788 788 787 787 787 787 787 787 787 787 787 787 786 786 785 785 784 784 784 784 784 783 784 784 784 784 784 785 785 786 785 785 782 778 780 781 782 785 785 787 788 788 789 789 788 787 786 784 784 784 786 790 792 793 796 795 795 801 805 807 806 805 808 809 807 808 809 808 809 813 817 820 819 818 823 826 829 828 824 827 829 826 826 828 828 827 827 826
787 787 786 786 786 786 786 786 786 786 786 786 785 785 784 783 782 782 783 783 783 783 783 783 784 784 784 784 785 787 784 782 779 778 781 782 783 785 785 787 787 788 789 788 787 786 786 784 785 787 788 791 794 797 799 797 796 804 809 808 807 806 809 810 809 811 810 809 812 816 820 821 820 822 824 825 827 827 824 827 828 825 825 826 827 828 827 827
786 786 786 786 785 786 785 785 785 785 785 784 784 783 782 782 781 781 781 782 782 782 782 783 783 784 784 784 786 786 780 776 776 778 781 782 784 785 786 787 787 788 788 787 787 785 786 786 786 787 789 794 797 798 800 798 797 804 811 813 811 809 810 811 811 813 812 813 815 817 821 820 819 820 820 820 823 824 826 828 827 826 826 827 829 828 828 829
785 785 785 785 784 784 784 784 784 783 783 782 782 782 781 781 780 781 780 781 781 781 782 782 783 783 783 785 784 779 775 776 777 779 781 782 784 785 786 787 787 789 787 786 785 784 785 787 788 786 791 797 797 799 800 800 802 806 812 814 812 812 813 812 812 814 814 815 816 817 820 818 818 821 822 823 825 827 828 828 827 827 827 828 829 828 828 829
785 784 784 784 783 783 783 783 782 782 782 781 781 780 780 780 779 780 780 780 780 780 781 780 782 782 783 785 778 774 776 777 778 779 781 782 784 785 786 787 787 788 787 787 785 785 785 786 788 787 791 796 795 799 800 802 808 809 811 813 813 814 815 814 815 816 816 817 817 819 823 821 819 823 828 829 829 829 828 828 829 829 828 830 830 829 828 830
784 783 783 783 782 782 782 781 781 781 780 780 780 779 779 779 779 779 779 779 779 779 780 780 782 781 783 783 775 776 779 777 778 780 781 782 783 784 786 787 787 787 786 786 785 785 784 784 785 784 788 794 796 800 800 803 808 808 810 812 812 815 815 815 817 818 817 818 818 820 826 825 822 824 830 833 829 828 829 830 831 831 831 831 830 829 830 831
783 783 783 782 781 781 780 780 780 779 779 778 778 778 778 777 778 778 777 778 777 778 779 779 780 780 782 780 773 776 779 777 779 780 781 783 783 785 786 787 787 787 786 785 785 785 784 784 783 783 790 794 798 802 803 803 805 807 810 813 814 814 816 816 818 818 817 819 818 820 827 826 824 826 830 833 830 827 830 833 834 833 833 832 831 831 831 832
783 782 782 781 781 780 779 779 778 778 777 777 777 777 776 777 776 776 777 776 776 777 778 778 779 780 781 777 772 775 778 777 779 780 781 783 784 786 786 787 787 787 786 783 784 786 785 784 783 786 791 793 801 806 806 803 804 808 808 814 818 815 817 817 817 818 816 821 819 821 832 830 829 832 829 828 828 827 829 833 835 834 834 833 832 831 831 832
782 782 781 780 780 779 778 778 777 777 776 776 776 776 776 776 776 776 776 775 776 776 777 777 778 780 779 775 773 776 777 777 778 780 782 783 785 786 786 787 787 787 786 784 785 786 785 785 784 788 790 793 803 805 802 803 805 809 808 812 817 816 820 817 816 817 816 821 819 823 837 837 834 834 829 826 825 827 828 831 834 834 833 832 831 831 831 833
781 781 780 779 779 778 777 777 776 775 775 775 775 775 775 775 775 776 775 775 775 775 777 777 778 780 777 775 776 776 776 777 779 780 781 783 784 786 787 787 787 787 786 785 786 786 786 786 785 788 790 793 801 802 803 807 805 809 812 810 810 815 822 818 815 816 817 819 816 824 839 838 836 835 830 827 825 826 829 830 831 832 831 830 830 831 833 833
780 779 779 778 777 776 776 775 775 774 774 774 774 775 774 775 775 775 775 775 775 775 777 776 777 777 773 775 777 775 777 778 779 780 781 782 783 784 786 787 787 787 787 786 786 786 786 786 786 792 795 795 799 802 805 808 804 810 818 815 808 812 821 820 815 815 817 816 814 826 836 833 833 832 829 827 826 827 829 830 830 831 831 831 830 831 833 834
779 778 777 777 776 775 775 774 774 774 774 774 774 774 774 774 774 774 775 775 775 776 776 777 776 772 772 777 778 777 778 778 778 780 781 782 782 782 785 786 787 786 787 786 786 787 786 787 789 793 797 799 799 800 808 811 806 806 811 812 811 811 819 821 817 814 814 815 815 821 827 831 834 830 829 828 826 828 829 831 831 832 833 832 831 832 833 835
778 777 776 776 775 775 774 774 773 773 773 774 774 774 774 774 774 775 776 776 776 776 775 775 771 769 774 778 778 777 776 776 778 779 781 782 781 782 783 784 785 785 786 786 787 787 787 790 793 794 795 798 796 797 815 820 808 803 803 807 813 812 815 818 819 815 811 815 818 815 819 830 832 828 830 829 827 829 830 832 832 833 833 831 831 832 833 835
778 777 776 775 774 774 773 773 773 773 773 774 773 774 774 774 775 776 777 777 777 776 776 773 769 775 782 779 776 775 773 775 778 778 780 781 782 783 782 782 783 784 786 788 788 787 789 792 794 795 795 797 796 796 813 817 806 806 806 807 813 813 814 817 821 818 812 814 816 814 818 825 827 827 830 830 828 828 829 830 831 832 832 831 830 830 832 834
778 776 775 774 774 773 773 772 772 773 773 774 774 774 775 775 776 776 777 777 776 775 775 772 769 775 779 775 770 771 773 775 777 778 779 780 781 782 780 781 781 783 789 791 791 788 789 793 794 795 794 796 796 793 802 804 798 803 804 805 812 814 816 818 818 817 814 815 815 815 819 824 827 827 828 829 827 826 827 828 830 832 832 830 830 829 832 834
778 776 775 774 774 773 772 772 772 773 773 774 775 776 775 773 773 774 774 773 770 766 766 766 765 766 768 769 769 771 774 775 776 777 779 779 779 780 779 780 782 784 788 790 791 787 787 794 795 792 792 792 792 792 795 796 794 799 803 807 810 813 818 819 817 815 814 817 820 819 818 821 824 824 825 827 826 826 827 829 830 831 831 830 830 830 832 834
777 777 775 774 773 773 773 772 772 773 773 774 776 774 769 766 768 769 769 769 766 762 763 764 764 765 766 768 768 769 772 775 775 774 778 778 776 781 782 782 787 788 785 786 788 787 790 796 792 787 789 789 789 792 794 795 796 798 802 808 810 812 818 820 818 817 814 817 823 821 818 820 821 821 823 824 826 827 826 828 829 829 830 830 830 831 832 834
777 776 775 774 773 772 773 772 773 773 773 773 774 770 765 763 765 765 764 767 768 764 764 765 765 766 765 767 768 767 770 774 777 775 776 777 776 781 783 783 788 787 784 786 789 791 793 793 787 784 787 788 790 792 794 796 796 797 800 806 810 812 818 820 819 817 814 817 822 822 820 820 819 819 822 822 824 824 823 824 826 827 829 830 831 831 832 835
778 776 775 774 772 773 773 773 773 774 773 774 773 768 765 765 765 764 763 766 770 767 765 766 767 767 767 768 767 768 771 773 777 776 774 776 778 779 782 784 785 785 786 787 790 792 793 788 784 784 786 789 793 793 794 795 794 796 799 803 809 813 817 819 819 818 814 815 819 820 819 820 821 822 822 821 821 821 822 823 823 824 827 828 829 830 831 833
778 776 776 774 773 774 773 774 774 774 774 773 771 768 766 766 765 765 763 764 771 770 766 767 766 766 768 768 767 768 771 770 772 773 771 774 777 777 779 781 783 786 784 784 787 790 789 785 782 785 787 789 794 796 794 793 796 798 798 802 807 811 814 814 814 816 814 814 815 816 820 820 820 823 823 820 820 821 821 822 823 823 824 826 827 828 830 831
779 778 777 775 775 774 774 775 774 774 774 772 771 768 767 767 764 765 766 769 776 772 767 768 767 767 767 767 768 767 769 770 770 769 769 770 773 776 778 777 781 785 782 782 787 787 787 784 783 787 790 789 794 796 791 789 795 802 802 801 803 807 811 811 813 813 814 817 813 813 824 821 814 817 818 816 819 820 819 820 822 822 822 824 825 827 828 829
779 778 777 777 776 775 776 775 773 775 773 770 769 767 767 767 765 766 767 775 785 779 773 771 771 772 768 768 767 765 775 777 768 766 768 769 769 772 778 777 778 783 782 783 784 784 786 786 785 789 790 792 794 794 791 788 792 803 804 799 801 804 810 813 813 811 812 817 813 811 821 820 812 812 809 811 817 817 817 818 818 819 820 821 822 824 826 827
779 778 778 778 777 776 776 773 774 774 771 769 768 767 768 765 765 767 771 791 799 785 777 773 771 772 769 768 765 770 786 780 768 768 768 770 768 769 778 780 778 782 780 783 789 787 786 788 789 790 791 794 794 793 791 787 791 802 802 799 801 804 810 812 809 808 809 812 813 810 814 817 814 808 802 806 814 815 815 816 815 815 816 817 818 820 822 824
779 778 778 777 777 777 775 774 775 772 769 769 767 767 766 764 767 766 780 814 809 780 777 773 768 768 765 766 765 771 778 773 775 776 766 769 771 770 779 778 777 781 778 785 795 789 784 788 791 790 792 793 792 791 789 789 795 802 799 797 800 802 806 807 805 806 806 811 817 810 810 817 814 805 800 803 810 813 812 811 812 812 813 814 816 817 819 821
779 778 777 776 776 775 775 775 774 771 769 768 766 767 765 764 769 767 785 816 802 776 777 774 769 771 767 768 770 770 770 769 776 774 765 770 771 770 778 775 775 781 779 782 788 785 784 786 785 787 790 791 792 791 788 791 796 799 798 798 800 801 803 806 805 806 809 817 820 812 810 817 812 802 802 807 809 808 805 803 805 806 808 810 812 814 816 818
779 777 777 775 775 775 774 773 771 770 769 767 767 766 765 767 772 785 808 815 795 779 776 774 775 776 772 774 774 772 772 772 770 769 769 771 770 770 773 772 773 778 780 781 783 784 785 784 783 786 789 788 791 791 790 792 794 797 799 800 803 803 802 805 802 803 814 821 819 813 810 815 815 802 796 802 801 796 795 796 798 800 802 806 808 810 813 815
778 777 776 774 775 774 773 772 770 770 768 767 768 765 767 771 775 799 818 803 789 786 779 778 779 775 775 780 781 776 773 772 769 771 774 772 773 776 775 776 777 779 783 782 784 786 786 787 788 788 787 787 790 793 794 793 793 796 797 799 807 807 805 809 806 807 818 821 816 810 806 814 819 804 789 789 789 786 789 790 793 796 798 801 804 807 809 811
777 776 775 773 773 773 772 770 769 770 768 767 769 766 771 783 790 801 803 791 794 794 785 784 780 775 778 781 783 780 774 773 771 771 773 773 777 777 777 780 779 787 793 786 786 788 786 789 790 790 788 785 789 797 800 799 796 797 796 801 810 811 814 818 814 811 815 817 812 806 810 815 809 792 783 785 784 783 785 785 786 790 792 796 800 803 805 808
777 775 774 773 772 771 771 770 768 769 768 768 769 766 774 796 805 799 791 790 797 791 782 784 778 775 780 779 779 778 775 774 771 771 772 773 777 775 775 776 774 785 793 788 788 790 792 794 791 793 791 784 785 794 803 804 799 799 797 801 810 816 828 832 819 813 816 816 809 805 812 812 799 787 781 781 781 780 782 782 783 785 787 792 796 799 803 806
776 774 774 772 771 771 770 769 768 768 769 769 770 773 787 804 804 795 790 789 789 784 780 782 779 777 780 780 778 777 780 778 769 772 774 775 780 779 776 776 774 778 782 786 790 793 802 804 794 791 790 786 785 787 791 793 793 796 791 794 804 808 821 829 822 820 819 812 808 813 814 805 802 799 783 777 781 779 781 781 781 784 785 788 793 796 801 804
776 774 774 772 771 771 769 768 768 767 769 769 771 781 797 803 795 790 791 785 782 782 779 778 779 781 782 781 776 774 780 779 771 773 776 775 779 777 774 775 774 774 779 789 792 789 798 799 788 787 786 785 788 785 782 786 795 797 789 795 804 797 801 814 817 818 817 813 810 811 805 789 789 790 777 778 782 778 781 782 781 785 785 786 792 794 798 802
776 774 773 772 771 769 768 768 768 768 769 770 779 789 792 791 787 785 787 783 781 782 781 780 781 785 784 779 776 774 775 776 774 776 776 774 775 774 772 770 768 772 776 784 788 787 795 796 786 787 788 784 786 785 782 787 797 799 795 799 797 787 791 807 818 817 817 822 813 801 796 782 780 787 780 779 782 778 781 783 782 785 786 789 793 794 797 800
775 774 772 772 771 769 769 768 767 769 769 770 784 792 785 782 781 780 781 781 780 781 783 786 787 788 786 781 778 775 775 776 776 777 777 777 776 772 771 769 766 768 768 772 780 782 789 796 788 786 790 786 782 784 785 784 788 794 798 794 788 790 794 800 816 821 819 824 813 799 800 791 790 797 787 779 783 782 781 782 783 785 787 791 793 793 796 797
775 774 772 771 771 769 768 768 768 768 769 774 787 791 784 781 780 778 779 779 780 781 783 789 789 787 789 788 781 773 775 778 777 777 778 778 777 772 769 770 769 768 765 767 777 779 781 794 794 784 788 789 783 786 791 787 783 787 790 785 788 806 808 801 813 822 821 826 817 803 799 793 791 792 784 781 784 783 781 782 783 785 787 790 791 793 795 796
774 774 773 771 771 769 768 769 766 765 771 780 787 788 784 782 779 777 777 777 779 782 784 786 785 785 787 786 779 774 776 777 774 777 779 777 779 774 767 769 771 771 768 767 775 778 778 794 800 787 784 788 787 789 794 792 788 786 786 785 788 797 800 798 803 808 813 822 819 810 804 795 787 781 780 782 780 779 782 782 782 784 786 788 789 791 793 796
774 776 776 772 770 770 768 767 765 768 776 782 784 784 783 781 778 775 775 777 778 780 783 783 782 784 784 780 777 775 775 775 773 775 776 773 777 776 768 767 770 771 770 769 772 775 778 790 799 792 787 791 790 787 785 785 787 788 790 792 792 792 793 796 797 794 801 813 817 819 816 797 780 777 778 778 777 777 779 781 781 781 783 786 787 789 791 794
774 779 777 771 770 770 768 769 772 775 779 782 782 783 783 781 778 776 775 776 776 775 778 780 780 782 782 780 779 776 775 778 775 772 772 770 773 776 771 766 767 768 772 774 773 775 779 784 791 794 794 792 785 778 777 779 780 782 785 786 787 789 793 804 809 798 792 802 808 815 820 799 775 774 777 775 776 776 774 778 780 779 781 785 786 788 791 793
776 780 776 771 771 769 769 774 779 779 779 780 781 781 782 781 779 777 775 776 777 775 775 778 779 779 780 779 778 775 775 778 775 770 771 768 767 770 770 767 766 765 769 774 773 773 777 779 786 791 786 783 780 777 779 780 777 777 780 779 780 784 789 803 814 803 794 799 799 802 812 799 776 774 776 775 777 775 774 778 779 779 781 784 786 788 791 793
776 776 772 770 770 768 773 780 782 780 779 779 779 779 780 780 779 777 776 776 777 776 777 778 776 777 777 776 776 775 774 775 772 769 770 769 766 767 768 767 767 765 767 773 773 775 779 781 788 790 780 776 778 777 778 779 780 781 780 778 780 783 784 789 795 795 797 800 798 803 811 797 778 775 775 775 776 776 777 778 779 780 781 783 786 788 791 793
775 774 771 771 770 769 776 783 783 781 780 780 780 780 779 779 779 778 777 776 776 777 779 778 774 774 775 774 775 775 774 778 776 769 768 769 767 767 767 766 767 766 767 772 772 774 782 784 788 796 796 793 791 788 787 786 784 783 779 778 780 781 784 788 788 792 800 799 797 808 811 792 776 774 773 774 776 776 778 778 778 781 783 784 786 787 790 793
776 776 773 770 769 770 776 779 779 781 782 782 784 783 782 780 777 777 778 776 773 774 778 777 773 771 772 773 775 774 773 778 778 771 768 768 767 767 768 768 768 765 766 771 767 768 779 782 785 798 807 809 806 801 796 789 782 779 779 781 782 781 785 790 790 794 804 803 796 801 802 787 774 771 772 774 776 777 779 779 778 780 783 784 785 787 790 792
777 780 777 773 771 772 776 776 777 780 781 783 786 785 785 784 779 775 776 776 773 773 776 775 771 772 774 774 776 775 772 774 777 775 770 767 767 767 767 767 768 766 768 772 767 767 778 780 781 788 793 795 795 791 787 784 781 781 783 783 784 784 784 786 790 793 795 798 795 790 791 790 781 774 773 774 775 776 778 779 780 780 782 784 785 787 789 791
778 779 778 778 777 776 777 776 777 779 780 782 786 785 785 786 783 778 777 775 774 774 776 775 773 775 777 777 776 776 773 774 777 777 772 767 766 768 768 766 766 769 771 771 767 770 779 783 783 785 785 784 784 784 784 785 783 781 781 783 785 786 787 789 792 790 787 795 798 788 786 792 786 776 775 775 774 775 776 777 778 780 782 783 785 787 789 791
779 778 776 779 780 779 779 779 777 779 780 781 783 785 786 786 785 785 781 776 773 773 778 780 777 775 776 775 776 776 774 775 777 775 771 768 766 768 769 766 766 769 770 769 768 771 778 783 785 785 785 784 783 785 785 784 782 780 779 782 783 785 789 790 788 784 785 794 795 786 786 791 784 776 774 773 773 774 774 775 776 778 781 782 784 787 788 790
779 778 777 779 780 778 780 781 780 780 781 782 783 785 786 786 785 786 783 781 779 775 778 785 781 774 773 773 774 776 775 775 778 776 770 768 768 768 770 771 768 766 767 769 772 773 777 782 784 784 785 785 784 785 785 783 781 780 778 778 779 781 782 784 783 782 785 787 784 784 789 787 778 773 772 772 772 772 773 775 775 777 779 781 783 785 786 788
781 781 780 780 779 779 781 782 782 782 781 783 785 784 783 785 786 786 784 786 788 781 777 783 782 775 775 775 774 775 772 769 774 773 768 770 771 767 768 769 767 766 767 770 774 775 779 786 786 782 784 786 784 784 784 782 780 780 778 776 778 780 781 782 783 785 787 786 782 785 790 783 772 770 771 772 773 772 773 775 776 776 777 779 781 782 783 785
786 785 785 782 779 780 782 781 780 782 781 782 784 783 783 784 786 789 787 783 785 784 779 781 781 778 777 776 772 771 767 763 766 765 763 767 769 764 762 762 762 766 769 771 774 774 778 785 785 782 788 788 783 783 785 782 780 781 779 777 779 781 783 782 782 783 784 784 785 788 787 777 769 769 771 773 773 773 774 775 775 775 775 777 779 780 781 783
790 787 785 783 781 780 780 779 780 782 782 779 779 780 783 784 784 790 794 786 778 777 776 777 779 779 777 775 771 768 764 762 761 759 758 759 760 758 758 757 758 762 766 771 774 773 774 779 780 782 790 788 781 782 784 783 789 790 781 776 777 778 779 779 779 779 779 779 783 785 778 770 768 769 771 772 773 772 772 772 773 774 774 775 777 777 778 780